Weather History for Monroe, MI

Change the Weather History Date:

Sunday, April 15, 2012

  Actual Average Record
Temperature  
Mean Temperature 68 °F -  
Max Temperature 80 °F 58 °F 84 °F (1941)
Min Temperature 57 °F 39 °F 20 °F (1935)
Cooling Degree Days 4    
Growing Degree Days 18 (Base 50)    
Moisture  
Dew Point 57 °F    
Average Humidity 76    
Maximum Humidity 100    
Minimum Humidity 37    
Precipitation  
Precipitation 0.00 in - - ()
Sea Level Pressure  
Sea Level Pressure 29.84 in    
Wind  
Wind Speed 8 mph (SSW)    
Max Wind Speed 22 mph    
Max Gust Speed 31 mph    
Visibility 7 miles    
Events Rain    
Averages and records for this station are not official NWS values.
T = Trace of Precipitation, MM = Missing Value Source: NWS Daily Summary

Daily Weather History Graph

Daily Weather History Graph

Search for Another Location

Airport:

Trip Planner

Search our weather history database for the weather conditions in past years. The results will help you decide how hot, cold, wet, or windy it might be!

Date:

Astronomy

Apr. 15, 2012 Rise Set
Actual Time 6:52 AM EDT 8:15 PM EDT
Civil Twilight 6:23 AM EDT 8:44 PM EDT
Nautical Twilight 5:48 AM EDT 9:19 PM EDT
Astronomical Twilight 5:11 AM EDT 9:56 PM EDT
Moon 3:54 AM EDT (4/15) 3:04 PM EDT (4/15)
Length of Visible Light 14h 20m
Length of Day
13h 22m
Waning Crescent, 28% of the Moon is Illuminated
Apr 15
Waning Crescent
Apr 21
New
Apr 29
First Quarter
May 5
Full
May 12
Last Quarter

Hourly Weather History & Observations

Time (EDT) Temp. Heat Index Dew Point Humidity Pressure Visibility Wind Dir Wind Speed Gust Speed Precip Events Conditions
12:12 AM 57.2 °F - 57.2 °F 100% 29.92 in 5.0 mi WSW 6.9 mph - N/A   Overcast
12:33 AM 57.2 °F - 57.2 °F 100% 29.93 in 5.0 mi WSW 10.4 mph - N/A   Overcast
12:53 AM 57.2 °F - 57.2 °F 100% 29.91 in 5.0 mi SW 11.5 mph - N/A   Overcast
1:13 AM 59.0 °F - 59.0 °F 100% 29.91 in 5.0 mi SW 8.1 mph - N/A   Overcast
1:33 AM 59.0 °F - 59.0 °F 100% 29.90 in 5.0 mi SW 5.8 mph - N/A   Overcast
1:53 AM 59.0 °F - 59.0 °F 100% 29.89 in 5.0 mi SW 4.6 mph - N/A   Overcast
2:13 AM 57.2 °F - 57.2 °F 100% 29.89 in 5.0 mi SW 4.6 mph - N/A   Overcast
2:33 AM 57.2 °F - 57.2 °F 100% 29.88 in 5.0 mi Calm Calm - N/A   Overcast
2:53 AM 57.2 °F - 57.2 °F 100% 29.87 in 4.0 mi SSW 4.6 mph - N/A   Overcast
3:14 AM 59.0 °F - 59.0 °F 100% 29.85 in 3.0 mi South 3.5 mph - N/A   Overcast
3:34 AM 59.0 °F - 59.0 °F 100% 29.85 in 3.0 mi South 4.6 mph - N/A   Overcast
3:54 AM 60.8 °F - 60.8 °F 100% 29.86 in 2.5 mi South 4.6 mph - N/A   Overcast
4:14 AM 59.0 °F - 59.0 °F 100% 29.85 in 2.5 mi South 5.8 mph - N/A Rain Light Rain
4:34 AM 59.0 °F - 59.0 °F 100% 29.84 in 3.0 mi South 5.8 mph - N/A   Mostly Cloudy
4:54 AM 57.2 °F - 57.2 °F 100% 29.83 in 2.5 mi SSE 4.6 mph - N/A   Mostly Cloudy
5:14 AM 57.2 °F - 57.2 °F 100% 29.83 in 2.0 mi SE 3.5 mph - N/A   Overcast
5:34 AM 57.2 °F - 57.2 °F 100% 29.82 in 2.0 mi SE 4.6 mph - N/A   Overcast
5:54 AM 57.2 °F - 57.2 °F 100% 29.81 in 2.0 mi SE 5.8 mph - N/A   Overcast
6:15 AM 57.2 °F - 57.2 °F 100% 29.81 in 2.5 mi SE 3.5 mph - N/A   Overcast
6:35 AM 57.2 °F - 57.2 °F 100% 29.82 in 3.0 mi Calm Calm - N/A   Overcast
6:55 AM 57.2 °F - 57.2 °F 100% 29.85 in 3.0 mi North 6.9 mph - N/A   Overcast
7:15 AM 57.2 °F - 57.2 °F 100% 29.87 in 3.0 mi North 9.2 mph - N/A   Overcast
7:35 AM 57.2 °F - 57.2 °F 100% 29.89 in 3.0 mi North 8.1 mph - N/A   Overcast
7:55 AM 57.2 °F - 57.2 °F 100% 29.88 in 2.5 mi ENE 4.6 mph - N/A Rain Light Rain
8:10 AM 57.2 °F - 57.2 °F 100% 29.87 in 2.0 mi East 5.8 mph - N/A   Overcast
8:30 AM 57.2 °F - 57.2 °F 100% 29.87 in 1.2 mi SE 8.1 mph - N/A   Overcast
8:50 AM 57.2 °F - 57.2 °F 100% 29.88 in 1.8 mi Calm Calm - N/A   Overcast
9:11 AM 57.2 °F - 57.2 °F 100% 29.88 in 1.8 mi Calm Calm - N/A   Overcast
9:31 AM 57.2 °F - 57.2 °F 100% 29.87 in 2.0 mi ESE 4.6 mph - N/A   Overcast
9:51 AM 59.0 °F - 59.0 °F 100% 29.86 in 3.0 mi SE 5.8 mph - N/A   Mostly Cloudy
10:11 AM 60.8 °F - 60.8 °F 100% 29.85 in 5.0 mi SSE 8.1 mph - N/A   Scattered Clouds
10:31 AM 62.6 °F - 62.6 °F 100% 29.85 in 7.0 mi SSE 6.9 mph - N/A   Clear
10:51 AM 64.4 °F - 62.6 °F 94% 29.84 in 7.0 mi South 8.1 mph - N/A   Clear
11:11 AM 64.4 °F - 62.6 °F 94% 29.82 in 10.0 mi South 10.4 mph 16.1 mph N/A   Clear
11:32 AM 68.0 °F - 60.8 °F 78% 29.83 in 10.0 mi SSW 10.4 mph - N/A   Scattered Clouds
11:52 AM 71.6 °F - 60.8 °F 69% 29.83 in 10.0 mi SW 12.7 mph 17.3 mph N/A   Scattered Clouds
12:12 PM 71.6 °F - 60.8 °F 69% 29.83 in 10.0 mi SW 13.8 mph 24.2 mph N/A   Mostly Cloudy
12:32 PM 71.6 °F - 60.8 °F 69% 29.84 in 10.0 mi SW 15.0 mph 26.5 mph N/A   Scattered Clouds
12:52 PM 69.8 °F - 60.8 °F 73% 29.83 in 10.0 mi SW 17.3 mph 25.3 mph N/A   Mostly Cloudy
1:12 PM 71.6 °F - 60.8 °F 69% 29.84 in 10.0 mi WSW 11.5 mph 21.9 mph N/A   Mostly Cloudy
1:32 PM 73.4 °F - 60.8 °F 65% 29.83 in 10.0 mi SW 12.7 mph - N/A   Scattered Clouds
1:52 PM 75.2 °F - 60.8 °F 61% 29.82 in 10.0 mi SW 20.7 mph 25.3 mph N/A   Clear
2:12 PM 75.2 °F - 59.0 °F 57% 29.82 in 10.0 mi SW 17.3 mph 27.6 mph N/A   Scattered Clouds
2:33 PM 78.8 °F - 59.0 °F 51% 29.81 in 10.0 mi WSW 21.9 mph 29.9 mph N/A   Scattered Clouds
2:53 PM 78.8 °F - 57.2 °F 47% 29.81 in 10.0 mi SW 20.7 mph 27.6 mph N/A   Scattered Clouds
3:13 PM 78.8 °F - 57.2 °F 47% 29.81 in 10.0 mi SW 21.9 mph 27.6 mph N/A   Scattered Clouds
3:33 PM 80.6 °F 80.5 °F 55.4 °F 42% 29.80 in 10.0 mi SSW 19.6 mph 31.1 mph N/A   Scattered Clouds
3:53 PM 80.6 °F 80.8 °F 57.2 °F 45% 29.79 in 10.0 mi SSW 15.0 mph 23.0 mph N/A   Scattered Clouds
4:13 PM 80.6 °F 80.5 °F 55.4 °F 42% 29.79 in 10.0 mi SW 11.5 mph 21.9 mph N/A   Scattered Clouds
4:33 PM 80.6 °F 80.3 °F 53.6 °F 39% 29.79 in 10.0 mi SSW 17.3 mph 26.5 mph N/A   Scattered Clouds
4:53 PM 80.6 °F - 51.8 °F 37% 29.79 in 10.0 mi SW 19.6 mph 27.6 mph N/A   Clear
5:14 PM 80.6 °F 80.3 °F 53.6 °F 39% 29.79 in 10.0 mi SW 17.3 mph 24.2 mph N/A   Scattered Clouds
5:34 PM 80.6 °F 80.3 °F 53.6 °F 39% 29.79 in 10.0 mi SW 17.3 mph 26.5 mph N/A   Scattered Clouds
5:54 PM 78.8 °F - 53.6 °F 42% 29.80 in 10.0 mi SW 17.3 mph 28.8 mph N/A   Scattered Clouds
6:14 PM 78.8 °F - 53.6 °F 42% 29.80 in 10.0 mi SW 13.8 mph 24.2 mph N/A   Mostly Cloudy
6:34 PM 77.0 °F - 53.6 °F 44% 29.80 in 10.0 mi SW 10.4 mph 17.3 mph N/A   Mostly Cloudy
6:54 PM 77.0 °F - 53.6 °F 44% 29.80 in 10.0 mi SW 16.1 mph 23.0 mph N/A   Overcast
7:14 PM 77.0 °F - 53.6 °F 44% 29.80 in 10.0 mi SSW 13.8 mph 20.7 mph N/A   Overcast
7:34 PM 75.2 °F - 53.6 °F 47% 29.81 in 10.0 mi SW 19.6 mph 25.3 mph N/A   Overcast
7:55 PM 75.2 °F - 53.6 °F 47% 29.81 in 10.0 mi SW 11.5 mph 23.0 mph N/A   Overcast
8:15 PM 75.2 °F - 53.6 °F 47% 29.80 in 10.0 mi SSW 10.4 mph - N/A   Mostly Cloudy
8:35 PM 73.4 °F - 53.6 °F 50% 29.81 in 10.0 mi SSW 8.1 mph - N/A   Scattered Clouds
8:55 PM 71.6 °F - 53.6 °F 53% 29.82 in 10.0 mi SSW 6.9 mph - N/A   Mostly Cloudy
9:10 PM 71.6 °F - 53.6 °F 53% 29.81 in 10.0 mi South 6.9 mph - N/A   Scattered Clouds
9:30 PM 69.8 °F - 55.4 °F 60% 29.81 in 10.0 mi South 5.8 mph - N/A   Clear
9:50 PM 69.8 °F - 55.4 °F 60% 29.81 in 10.0 mi South 6.9 mph - N/A   Clear
10:10 PM 69.8 °F - 55.4 °F 60% 29.82 in 10.0 mi South 6.9 mph - N/A   Clear
10:31 PM 68.0 °F - 55.4 °F 64% 29.82 in 10.0 mi South 5.8 mph - N/A   Clear
10:51 PM 68.0 °F - 55.4 °F 64% 29.81 in 10.0 mi SSE 6.9 mph - N/A   Clear
11:11 PM 66.2 °F - 55.4 °F 68% 29.81 in 10.0 mi SSE 5.8 mph - N/A   Clear
11:31 PM 66.2 °F - 55.4 °F 68% 29.80 in 10.0 mi South 6.9 mph - N/A   Clear